1535785201.15,30607,18.75,74552.8,14.09,-12.75,-13.19,0,*48
1535785202.4,30608,18.75,74556.5,14.11,-11.89,-12.43,0,*40
1535785203.65,30609,18.75,74558.3,14.11,-11.89,-12.43,0,*41
1535785204.92,30610,18.75,74556.5,14.11,-12.15,-12.83,0,*43
1535785206.2,30611,18.75,74556.8,14.15,-12.07,-12.57,0,*4C
1535785207.45,30612,18.75,74556.5,14.13,-11.85,-12.53,0,*44
1535785208.68,30613,18.81,74558.3,14.15,-13.07,-13.55,0,*4C
1535785209.88,30614,18.75,74556.5,14.13,-12.43,-12.97,0,*43
1535785211.1,30615,18.75,74558.8,14.13,-12.29,-12.83,0,*4B
1535785212.38,30616,18.75,74556.8,14.15,-11.55,-12.07,0,*4A
1535785213.61,30617,18.75,74556.5,14.15,-12.97,-13.55,0,*40
1535785214.86,30618,18.81,74560.0,14.17,-12.11,-12.61,0,*45
1535785216.1,30619,18.75,74558.0,14.17,-12.53,-13.19,0,*4C
1535785217.33,30620,18.75,74558.0,14.17,-12.03,-12.53,0,*4C
1535785218.56,30621,18.75,74558.3,14.17,-12.35,-12.89,0,*4F
1535785219.8,30622,18.75,74554.8,14.19,-12.61,-13.43,0,*44
1535785221.02,30623,18.81,74556.5,14.17,-13.33,-13.93,0,*40
1535785222.24,30624,18.75,74556.8,14.19,-12.47,-13.07,0,*46
1535785223.5,30625,18.75,74556.8,14.17,-12.11,-12.79,0,*42
1535785224.74,30626,18.81,74556.5,14.17,-12.21,-12.79,0,*42
1535785225.98,30627,18.75,74556.3,14.17,-12.11,-12.65,0,*4D
1535785227.24,30628,18.75,74558.8,14.17,-12.35,-12.75,0,*45
1535785228.44,30629,18.81,74558.8,14.17,-13.47,-14.11,0,*44
1535785229.65,30630,18.81,74558.5,14.17,-12.25,-12.89,0,*4E
1535785230.9,30631,18.75,74556.8,14.17,-12.65,-13.33,0,*4B
1535785232.13,30632,18.75,74558.8,14.17,-12.21,-12.79,0,*47
1535785233.36,30633,18.75,74552.3,14.17,-11.81,-12.25,0,*46
1535785234.56,30634,18.75,74552.3,14.17,-13.19,-13.65,0,*47
1535785235.82,30635,18.81,74558.8,14.17,-12.75,-13.33,0,*4E
1535785237.06,30636,18.75,74548.8,14.15,-12.83,-13.43,0,*41
1535785238.26,30637,18.75,74552.0,14.17,-13.11,-13.73,0,*4B
1535785239.49,30638,18.75,74552.0,14.15,-12.29,-12.93,0,*43
1535785240.74,30639,18.75,74552.0,14.15,-12.65,-13.23,0,*40
1535785241.99,30640,18.75,74554.5,14.17,-12.79,-13.37,0,*44
1535785243.19,30641,18.81,74558.0,14.17,-13.23,-13.93,0,*45
1535785244.44,30642,18.81,74558.3,14.17,-13.01,-13.61,0,*4B
1535785245.71,30643,18.75,74556.8,14.15,-13.79,-14.43,0,*40
1535785246.95,30644,18.75,74554.3,14.15,-14.37,-15.15,0,*48
1535785248.17,30645,18.75,74554.0,14.13,-14.29,-14.97,0,*4B
1535785249.45,30646,18.81,74556.5,14.11,-12.83,-13.33,0,*45
1535785250.69,30647,18.75,74556.3,14.11,-12.57,-13.15,0,*49
1535785251.91,30648,18.81,74558.8,14.13,-12.65,-13.23,0,*40
1535785253.14,30649,18.75,74558.8,14.13,-12.25,-12.83,0,*4E
1535785254.39,30650,18.75,74558.3,14.13,-12.71,-13.37,0,*49
1535785255.59,30651,18.75,74558.0,14.13,-13.07,-13.65,0,*4F
1535785256.82,30652,18.75,74552.8,14.13,-12.53,-13.11,0,*4F
1535785258.06,30653,18.75,74554.5,14.11,-11.51,-12.29,0,*47
1535785259.31,30654,18.75,74556.5,14.15,-12.65,-13.23,0,*4B
1535785260.57,30655,18.81,74562.3,14.15,-12.53,-13.15,0,*4A
1535785261.81,30656,18.75,74556.5,14.13,-12.79,-13.29,0,*48
1535785263.04,30657,18.75,74554.3,14.15,-12.29,-12.97,0,*4E
1535785264.29,30658,18.81,74558.5,14.15,-11.81,-12.29,0,*45
1535785265.57,30659,18.75,74556.5,14.15,-11.85,-12.53,0,*4D
1535785266.85,30660,18.75,74552.5,14.15,-13.29,-14.01,0,*42
1535785268.05,30661,18.75,74552.5,14.13,-12.93,-13.55,0,*43
1535785269.33,30662,18.75,74554.5,14.15,-12.15,-12.83,0,*42
1535785270.61,30663,18.81,74554.0,14.15,-12.11,-12.71,0,*4A
1535785271.85,30664,18.81,74556.8,14.15,-12.25,-12.93,0,*46
1535785273.1,30665,18.75,74556.5,14.17,-11.89,-12.35,0,*4C
1535785274.38,30666,18.75,74558.8,14.19,-11.37,-11.89,0,*40
1535785275.65,30667,18.75,74556.0,14.19,-11.97,-12.61,0,*4E
1535785276.93,30668,18.75,74558.5,14.19,-12.07,-12.75,0,*4E
1535785278.2,30669,18.75,74558.3,14.19,-11.85,-12.35,0,*42
1535785279.45,30670,18.81,74560.0,14.19,-12.61,-13.19,0,*4C
1535785280.7,30671,18.75,74558.5,14.19,-11.77,-12.29,0,*4B
1535785281.92,30672,18.75,74558.3,14.19,-12.47,-13.07,0,*45
1535785283.18,30673,18.75,74560.0,14.21,-11.73,-12.21,0,*4E
1535785284.45,30674,18.81,74560.3,14.23,-12.11,-12.71,0,*49
1535785285.67,30675,18.81,74562.5,14.23,-12.03,-12.57,0,*4F
1535785286.9,30676,18.81,74562.0,14.23,-11.73,-12.29,0,*41
1535785288.14,30677,18.75,74558.5,14.23,-11.45,-11.97,0,*43
1535785289.42,30678,18.75,74556.8,14.25,-12.11,-12.79,0,*4B
1535785290.68,30679,18.75,74560.0,14.25,-11.77,-12.25,0,*40
1535785291.93,30680,18.81,74562.0,14.25,-11.67,-12.25,0,*47
1535785293.2,30681,18.75,74558.0,14.25,-12.53,-13.19,0,*4C
1535785294.46,30682,18.75,74556.5,14.25,-12.61,-13.19,0,*4E
1535785295.72,30683,18.81,74562.3,14.25,-11.63,-12.21,0,*44
1535785296.99,30684,18.81,74564.5,14.25,-11.97,-12.65,0,*48
1535785298.28,30685,18.81,74562.3,14.25,-11.37,-11.89,0,*42
1535785299.53,30686,18.75,74558.3,14.25,-11.81,-12.39,0,*44
1535785300.78,30687,18.81,74562.5,14.25,-12.53,-13.07,0,*45
1535785302.04,30688,18.75,74558.0,14.25,-12.35,-12.89,0,*4D
1535785303.27,30689,18.75,74556.5,14.27,-12.79,-13.51,0,*42
1535785304.5,30690,18.75,74560.5,14.31,-12.57,-13.15,0,*41
1535785305.76,30691,18.81,74562.3,14.25,-12.53,-12.89,0,*45
1535785307.05,30692,18.75,74558.0,14.25,-12.07,-12.75,0,*44
1535785308.32,30693,18.75,74556.8,14.25,-12.65,-13.37,0,*46
1535785309.61,30694,18.75,74558.0,14.25,-12.07,-12.75,0,*42
1535785310.87,30695,18.75,74558.5,14.25,-11.67,-12.25,0,*43
1535785312.12,30696,18.75,74558.3,14.27,-11.51,-11.97,0,*4D
1535785313.38,30697,18.81,74560.3,14.31,-11.89,-12.71,0,*45
1535785314.62,30698,18.75,74556.3,14.27,-14.11,-14.83,0,*42
1535785315.83,30699,18.75,74560.8,14.27,-12.39,-13.19,0,*4B
1535785317.07,30700,18.81,74562.3,14.27,-11.67,-12.25,0,*4C
1535785318.35,30701,18.75,74556.5,14.25,-11.55,-12.11,0,*49
1535785319.64,30702,18.81,74558.0,14.25,-11.29,-11.93,0,*48
1535785320.89,30703,18.75,74558.5,14.27,-11.29,-11.77,0,*41
1535785322.16,30704,18.75,74554.8,14.27,-11.77,-12.35,0,*48
1535785323.39,30705,18.81,74556.0,14.31,-12.07,-12.89,0,*4D
1535785324.67,30706,18.75,74554.0,14.33,-11.67,-12.15,0,*4C
1535785325.93,30707,18.75,74554.5,14.33,-12.53,-13.23,0,*4D
1535785327.14,30708,18.75,74558.3,14.31,-12.47,-13.19,0,*4C
1535785328.42,30709,18.75,74554.5,14.33,-12.11,-12.65,0,*46
1535785329.64,30710,18.75,74558.5,14.31,-12.61,-13.15,0,*4D
1535785330.9,30711,18.81,74558.0,14.33,-11.85,-12.39,0,*48
1535785332.14,30712,18.75,74556.3,14.33,-11.45,-12.03,0,*4E
1535785333.39,30713,18.75,74552.0,14.33,-11.81,-12.43,0,*43
1535785334.64,30714,18.81,74558.0,14.33,-12.57,-13.23,0,*4B
1535785335.92,30715,18.75,74554.0,14.33,-11.67,-12.15,0,*4E
1535785337.15,30716,18.81,74558.0,14.33,-12.89,-13.55,0,*4B
1535785338.4,30717,18.81,74558.0,14.33,-12.39,-13.01,0,*40
1535785339.66,30718,18.81,74560.0,14.33,-11.85,-12.43,0,*4C
1535785340.89,30719,18.81,74558.0,14.33,-12.25,-12.89,0,*42
1535785342.14,30720,18.81,74558.8,14.33,-11.73,-12.25,0,*4E
1535785343.37,30721,18.75,74558.5,14.35,-11.15,-11.67,0,*4C
1535785344.58,30722,18.81,74560.3,14.35,-12.29,-12.97,0,*4F
1535785345.83,30723,18.75,74558.0,14.35,-12.57,-13.29,0,*43
1535785347.09,30724,18.75,74556.0,14.35,-12.11,-12.79,0,*42
1535785348.34,30725,18.81,74558.3,14.35,-11.55,-12.11,0,*4E
1535785349.6,30726,18.75,74556.5,14.35,-11.85,-12.53,0,*46
1535785350.8,30727,18.81,74562.0,14.35,-12.43,-13.11,0,*49
1535785352.03,30728,18.75,74556.0,14.35,-11.97,-12.39,0,*47
1535785353.25,30729,18.81,74558.3,14.35,-11.81,-12.43,0,*4C
1535785354.51,30730,18.75,74556.3,14.37,-11.97,-12.47,0,*45
1535785355.8,30731,18.81,74562.3,14.37,-11.55,-12.11,0,*49
1535785357.08,30732,18.81,74560.0,14.37,-12.07,-12.75,0,*4C
1535785358.35,30733,18.75,74556.3,14.35,-11.29,-11.89,0,*40
1535785359.58,30734,18.75,74556.3,14.39,-11.11,-11.63,0,*44
1535785360.84,30735,18.81,74558.5,14.41,-10.97,-11.63,0,*45
1535785362.09,30736,18.75,74558.0,14.41,-11.19,-11.77,0,*44
1535785363.34,30737,18.81,74562.8,14.41,-11.37,-12.03,0,*49
1535785364.59,30738,18.75,74558.3,14.41,-11.59,-12.29,0,*46
1535785365.87,30739,18.75,74552.3,14.41,-11.59,-12.15,0,*48
1535785367.1,30740,18.75,74554.8,14.43,-11.55,-12.25,0,*4B
1535785368.36,30741,18.75,74558.3,14.43,-11.07,-11.67,0,*48
1535785369.59,30742,18.75,74552.3,14.45,-10.85,-11.41,0,*42
1535785370.81,30743,18.75,74556.5,14.43,-12.57,-13.23,0,*4E
1535785372.04,30744,18.81,74556.3,14.45,-12.47,-13.07,0,*48
1535785373.29,30745,18.81,74552.8,14.43,-12.65,-13.29,0,*43
1535785374.51,30746,18.75,74552.5,14.43,-13.15,-14.01,0,*4B
1535785375.77,30747,18.81,74556.0,14.43,-12.15,-12.71,0,*4A
1535785376.99,30748,18.81,74558.0,14.43,-12.43,-13.01,0,*40
1535785378.23,30749,18.81,74556.5,14.43,-12.25,-12.75,0,*43
1535785379.46,30750,18.81,74554.5,14.43,-11.73,-12.29,0,*42
1535785380.66,30751,18.75,74552.8,14.43,-12.89,-13.55,0,*4F
1535785381.91,30752,18.75,74554.3,14.43,-12.71,-13.29,0,*40
1535785383.14,30753,18.75,74552.0,14.41,-12.29,-12.89,0,*45
1535785384.38,30754,18.81,74558.0,14.41,-12.43,-13.01,0,*4F
1535785385.66,30755,18.75,74554.0,14.41,-12.35,-13.01,0,*4F
1535785386.91,30756,18.81,74556.8,14.39,-12.57,-13.29,0,*4D
1535785388.17,30757,18.81,74556.3,14.39,-11.93,-12.57,0,*4F
1535785389.42,30758,18.75,74552.0,14.41,-12.35,-13.07,0,*44
1535785390.65,30759,18.81,74552.8,14.39,-11.77,-12.47,0,*4A
1535785391.9,30760,18.81,74556.8,14.41,-11.77,-12.29,0,*47
1535785393.19,30761,18.81,74558.3,14.41,-11.63,-12.35,0,*4E
1535785394.44,30762,18.81,74558.5,14.39,-12.15,-12.79,0,*48
1535785395.72,30763,18.75,74554.5,14.41,-11.77,-12.35,0,*49
1535785396.98,30764,18.75,74552.8,14.43,-12.11,-12.75,0,*4B
1535785398.23,30765,18.81,74556.0,14.41,-12.57,-13.07,0,*4E
1535785399.48,30766,18.81,74558.8,14.41,-13.07,-13.87,0,*41
1535785400.71,30767,18.81,74558.3,14.39,-11.89,-12.47,0,*46
1535785401.94,30768,18.81,74558.5,14.39,-12.15,-12.93,0,*46
1535785403.16,30769,18.81,74560.3,14.39,-12.43,-13.01,0,*4E
1535785404.41,30770,18.75,74558.0,14.39,-11.51,-12.07,0,*41
1535785405.67,30771,18.81,74556.5,14.41,-11.77,-12.29,0,*47
1535785406.94,30772,18.81,74556.3,14.41,-11.73,-12.35,0,*4D
1535785408.18,30773,18.75,74554.8,14.41,-12.29,-12.93,0,*4C
1535785409.47,30774,18.75,74556.0,14.41,-11.93,-12.71,0,*45
1535785410.73,30775,18.75,74558.0,14.39,-11.93,-12.35,0,*4B
1535785412.01,30776,18.75,74556.3,14.41,-12.07,-12.61,0,*48
1535785413.28,30777,18.75,74556.0,14.41,-13.01,-13.79,0,*46
1535785414.56,30778,18.81,74558.3,14.41,-11.93,-12.61,0,*48
1535785415.8,30779,18.81,74558.8,14.41,-12.21,-12.93,0,*4E
1535785417.07,30780,18.81,74556.3,14.41,-11.89,-12.57,0,*41
1535785418.32,30781,18.75,74552.8,14.41,-12.89,-13.61,0,*47
1535785419.53,30782,18.75,74552.0,14.39,-12.29,-12.93,0,*4D
1535785420.81,30783,18.81,74554.8,14.41,-11.73,-12.35,0,*43
1535785422.07,30784,18.81,74558.5,14.41,-12.03,-12.71,0,*40
1535785423.33,30785,18.81,74556.0,14.41,-12.21,-12.79,0,*49
1535785424.56,30786,18.81,74556.5,14.43,-11.67,-12.29,0,*4C
1535785425.82,30787,18.81,74552.0,14.41,-12.21,-13.01,0,*45
1535785427.06,30788,18.81,74552.8,14.41,-12.75,-13.47,0,*49
1535785428.3,30789,18.81,74556.5,14.41,-13.15,-13.79,0,*42
1535785429.56,30790,18.81,74558.0,14.41,-13.33,-14.15,0,*43
1535785430.76,30791,18.75,74552.0,14.39,-13.07,-13.65,0,*4A
1535785431.96,30792,18.81,74554.5,14.39,-13.07,-13.65,0,*49
1535785433.21,30793,18.81,74552.8,14.41,-12.75,-13.43,0,*47
1535785434.45,30794,18.75,74554.0,14.37,-13.51,-14.23,0,*47
1535785435.7,30795,18.81,74558.5,14.35,-12.15,-12.83,0,*49
1535785436.96,30796,18.75,74552.0,14.37,-11.85,-12.47,0,*4A
1535785438.22,30797,18.81,74558.8,14.37,-11.85,-12.39,0,*42
1535785439.45,30798,18.81,74554.3,14.37,-12.39,-13.11,0,*42
1535785440.71,30799,18.75,74552.5,14.37,-12.25,-12.79,0,*41
1535785441.97,30800,18.81,74556.3,14.37,-12.35,-12.93,0,*4B
1535785443.2,30801,18.75,74554.8,14.37,-12.93,-13.47,0,*4E
1535785444.43,30802,18.75,74556.3,14.37,-13.11,-13.69,0,*4A
1535785445.71,30803,18.81,74558.0,14.37,-12.11,-12.65,0,*47
1535785446.99,30804,18.75,74556.0,14.37,-11.37,-11.93,0,*4D
1535785448.28,30805,18.75,74556.0,14.37,-12.11,-12.79,0,*4C
1535785449.56,30806,18.81,74560.8,14.37,-12.71,-13.29,0,*4D
1535785450.84,30807,18.81,74558.8,14.37,-11.97,-12.65,0,*4E
1535785452.13,30808,18.81,74556.8,14.37,-11.93,-12.61,0,*41
1535785453.35,30809,18.75,74554.0,14.39,-12.47,-13.01,0,*43
1535785454.61,30810,18.75,74552.3,14.37,-11.41,-11.97,0,*4D
1535785455.87,30811,18.81,74554.8,14.37,-10.85,-11.37,0,*4F
1535785457.14,30812,18.81,74556.8,14.41,-11.37,-12.07,0,*45
1535785458.43,30813,18.81,74558.8,14.41,-12.07,-12.75,0,*41
1535785459.66,30814,18.81,74556.0,14.41,-12.29,-12.89,0,*49
1535785460.89,30815,18.81,74554.3,14.41,-12.21,-12.89,0,*40
1535785462.11,30816,18.81,74556.0,14.39,-13.15,-13.87,0,*45
1535785463.36,30817,18.81,74552.8,14.39,-13.61,-14.43,0,*48
1535785464.59,30818,18.75,74554.5,14.37,-13.19,-13.93,0,*4C
1535785465.85,30819,18.81,74558.8,14.37,-13.65,-14.47,0,*48
1535785467.09,30820,18.81,74562.0,14.35,-13.23,-13.97,0,*48
1535785468.34,30821,18.81,74560.5,14.33,-12.83,-13.55,0,*4A
1535785469.56,30822,18.81,74562.3,14.33,-13.11,-13.73,0,*47
1535785470.77,30823,18.81,74562.8,14.31,-13.43,-14.15,0,*44
1535785472.0,30824,18.75,74556.0,14.33,-12.89,-13.65,0,*46
1535785473.26,30825,18.75,74558.8,14.31,-14.01,-14.75,0,*45
1535785474.47,30826,18.81,74560.0,14.31,-13.69,-14.33,0,*4D
1535785475.73,30827,18.81,74556.8,14.31,-13.01,-13.61,0,*42
1535785476.95,30828,18.81,74560.0,14.31,-13.69,-14.43,0,*44
1535785478.17,30829,18.81,74560.3,14.27,-13.51,-14.23,0,*4F
1535785479.41,30830,18.81,74562.3,14.25,-13.11,-13.79,0,*49
1535785480.7,30831,18.81,74560.0,14.25,-11.93,-12.75,0,*4D
1535785481.96,30832,18.81,74562.0,14.25,-11.77,-12.47,0,*45
1535785483.19,30833,18.81,74562.3,14.25,-12.47,-13.11,0,*46
1535785484.42,30834,18.81,74562.5,14.25,-12.47,-13.07,0,*46
1535785485.7,30835,18.81,74562.0,14.25,-12.07,-12.75,0,*47
1535785486.94,30836,18.81,74562.5,14.27,-11.63,-12.47,0,*46
1535785488.15,30837,18.81,74556.3,14.27,-12.47,-13.19,0,*48
1535785489.35,30838,18.81,74558.8,14.27,-12.97,-13.65,0,*41
1535785490.62,30839,18.81,74558.5,14.27,-11.93,-12.53,0,*43
1535785491.88,30840,18.81,74556.3,14.27,-11.97,-12.61,0,*48
1535785493.08,30841,18.75,74558.8,14.27,-12.39,-13.07,0,*4F
1535785494.31,30842,18.81,74560.3,14.27,-11.93,-12.47,0,*4A
1535785495.55,30843,18.81,74562.0,14.31,-11.77,-12.29,0,*4E
1535785496.78,30844,18.81,74560.3,14.31,-11.73,-12.21,0,*45
1535785498.06,30845,18.81,74560.3,14.33,-11.29,-11.85,0,*44
1535785499.33,30846,18.81,74560.8,14.33,-11.45,-12.11,0,*43
1535785500.58,30847,18.81,74556.8,14.33,-12.71,-13.43,0,*40
1535785501.86,30848,18.81,74558.3,14.33,-12.15,-12.71,0,*4D
1535785503.14,30849,18.81,74558.8,14.33,-11.59,-12.15,0,*45
1535785504.43,30850,18.81,74558.3,14.33,-11.55,-12.11,0,*45
1535785505.66,30851,18.81,74558.5,14.35,-11.59,-12.25,0,*49
1535785506.89,30852,18.81,74556.8,14.35,-12.21,-12.79,0,*4F
1535785508.14,30853,18.81,74558.0,14.35,-12.65,-13.37,0,*45
1535785509.34,30854,18.81,74556.0,14.35,-12.89,-13.69,0,*4B
1535785510.59,30855,18.81,74558.8,14.35,-11.89,-12.57,0,*45
1535785511.85,30856,18.81,74558.3,14.37,-12.79,-13.55,0,*4B
1535785513.13,30857,18.81,74556.0,14.33,-11.89,-12.53,0,*45
1535785514.37,30858,18.81,74556.3,14.33,-12.25,-12.89,0,*48
1535785515.62,30859,18.81,74556.8,14.35,-12.65,-13.29,0,*40
1535785516.85,30860,18.81,74556.8,14.35,-12.53,-13.23,0,*45
1535785518.07,30861,18.81,74558.0,14.35,-12.39,-13.01,0,*48
1535785519.28,30862,18.75,74554.5,14.35,-12.39,-12.97,0,*45
1535785520.5,30863,18.81,74556.0,14.37,-12.47,-13.07,0,*47
1535785521.71,30864,18.81,74558.8,14.35,-12.25,-12.89,0,*41
1535785522.96,30865,18.81,74556.0,14.35,-12.65,-13.29,0,*4F
1535785524.24,30866,18.81,74558.0,14.33,-12.65,-13.37,0,*45
1535785525.52,30867,18.81,74556.3,14.33,-12.79,-13.37,0,*49
1535785526.76,30868,18.81,74556.0,14.33,-12.43,-13.01,0,*4A
1535785528.02,30869,18.81,74556.0,14.33,-12.03,-12.71,0,*49
1535785529.3,30870,18.81,74556.5,14.33,-12.79,-13.29,0,*40
1535785530.55,30871,18.81,74556.0,14.33,-12.83,-13.51,0,*4B
1535785531.8,30872,18.81,74558.5,14.33,-12.43,-13.01,0,*41
1535785533.03,30873,18.81,74558.8,14.31,-13.01,-13.69,0,*4B
1535785534.29,30874,18.81,74556.8,14.31,-12.07,-12.75,0,*47
1535785535.55,30875,18.81,74558.0,14.33,-12.03,-12.71,0,*44
1535785536.83,30876,18.81,74558.0,14.33,-11.73,-12.35,0,*43
1535785538.11,30877,18.81,74558.5,14.33,-12.11,-12.79,0,*4D
1535785539.39,30878,18.81,74556.3,14.33,-11.97,-12.65,0,*42
1535785540.64,30879,18.81,74558.0,14.33,-12.03,-12.65,0,*4D
1535785541.92,30880,18.81,74560.0,14.33,-11.55,-12.11,0,*48
1535785543.17,30881,18.81,74558.3,14.35,-12.53,-13.01,0,*4A
1535785544.45,30882,18.81,74558.3,14.33,-11.97,-12.57,0,*46
1535785545.68,30883,18.81,74558.3,14.35,-11.81,-12.39,0,*4E
1535785546.93,30884,18.81,74558.5,14.35,-11.97,-12.57,0,*46
1535785548.13,30885,18.81,74558.5,14.35,-12.39,-12.97,0,*4C
1535785549.33,30886,18.81,74558.5,14.35,-13.15,-13.69,0,*40
1535785550.58,30887,18.81,74556.8,14.35,-11.59,-12.15,0,*41
1535785551.81,30888,18.81,74554.8,14.35,-11.73,-12.43,0,*45
1535785553.04,30889,18.81,74560.0,14.35,-13.23,-13.97,0,*4B
1535785554.33,30890,18.81,74558.3,14.37,-12.11,-12.75,0,*4C
1535785555.56,30891,18.81,74560.5,14.35,-11.67,-12.29,0,*44
1535785556.81,30892,18.81,74558.3,14.35,-11.55,-12.15,0,*49
1535785558.09,30893,18.81,74558.0,14.37,-12.07,-12.65,0,*49
1535785559.34,30894,18.81,74554.8,14.35,-12.79,-13.37,0,*43
1535785560.57,30895,18.81,74554.8,14.35,-12.15,-12.89,0,*4C
1535785561.86,30896,18.81,74552.5,14.37,-11.97,-12.53,0,*43
1535785563.15,30897,18.81,74558.0,14.37,-12.07,-12.79,0,*40
1535785564.43,30898,18.81,74556.5,14.37,-11.97,-12.75,0,*49
1535785565.69,30899,18.81,74556.5,14.37,-13.11,-13.83,0,*4C
1535785566.95,30900,18.81,74554.3,14.37,-12.21,-12.83,0,*4E
1535785568.18,30901,18.81,74556.5,14.37,-12.39,-13.07,0,*4B
1535785569.44,30902,18.81,74558.3,14.37,-11.67,-12.39,0,*4C
1535785570.65,30903,18.81,74560.3,14.35,-12.25,-12.93,0,*4A
1535785571.87,30904,18.81,74558.3,14.35,-12.39,-13.01,0,*4A
1535785573.1,30905,18.81,74562.5,14.37,-12.47,-13.11,0,*41
1535785574.31,30906,18.81,74562.0,14.35,-12.25,-12.97,0,*4B
1535785575.59,30907,18.81,74560.0,14.37,-12.07,-12.83,0,*4D
1535785576.8,30908,18.81,74560.8,14.35,-12.25,-12.89,0,*4A
1535785578.08,30909,18.81,74560.0,14.37,-12.11,-12.65,0,*4C
1535785579.34,30910,18.81,74558.8,14.37,-11.55,-12.21,0,*47
1535785580.55,30911,18.81,74560.3,14.35,-12.29,-12.97,0,*41
1535785581.84,30912,18.81,74560.8,14.37,-12.11,-12.79,0,*4B
1535785583.12,30913,18.81,74562.8,14.37,-11.97,-12.65,0,*4A
1535785584.38,30914,18.81,74560.3,14.37,-12.35,-12.97,0,*4B
1535785585.66,30915,18.81,74562.8,14.37,-12.65,-13.37,0,*44
1535785586.92,30916,18.81,74562.0,14.37,-12.21,-12.83,0,*49
1535785588.12,30917,18.81,74564.0,14.35,-13.11,-13.73,0,*46
1535785589.33,30918,18.81,74566.5,14.35,-12.25,-12.93,0,*40
1535785590.59,30919,18.81,74560.0,14.35,-12.11,-12.79,0,*42
1535785591.88,30920,18.81,74564.3,14.37,-11.93,-12.53,0,*4B
1535785593.14,30921,18.81,74562.0,14.37,-13.11,-13.97,0,*4B
1535785594.38,30922,18.81,74560.8,14.35,-14.43,-15.25,0,*45
1535785595.61,30923,18.81,74560.5,14.35,-14.11,-15.01,0,*45
1535785596.82,30924,18.81,74562.0,14.31,-14.33,-15.15,0,*43
1535785598.06,30925,18.81,74560.5,14.27,-14.37,-15.21,0,*46
1535785599.27,30926,18.81,74562.0,14.27,-14.19,-15.07,0,*4D
1535785600.52,30927,18.81,74562.5,14.25,-13.79,-14.61,0,*4E
1535785601.73,30928,18.81,74562.0,14.23,-13.65,-14.37,0,*49
1535785602.99,30929,18.81,74560.3,14.21,-13.01,-13.55,0,*4B
1535785604.19,30930,18.81,74560.5,14.23,-12.43,-12.97,0,*49
1535785605.41,30931,18.81,74560.0,14.23,-11.73,-12.25,0,*41
1535785606.69,30932,18.81,74558.0,14.25,-12.07,-12.65,0,*40
1535785607.93,30933,18.81,74560.3,14.27,-11.93,-12.47,0,*4D
1535785609.17,30934,18.81,74558.5,14.25,-12.25,-12.97,0,*4B
1535785610.45,30935,18.81,74556.0,14.25,-11.93,-12.61,0,*4D
1535785611.66,30936,18.81,74554.3,14.27,-12.25,-12.93,0,*4F
1535785612.93,30937,18.81,74558.5,14.25,-12.21,-12.79,0,*4C
1535785614.13,30938,18.81,74558.0,14.27,-12.39,-13.07,0,*40
1535785615.34,30939,18.81,74556.8,14.27,-12.47,-13.19,0,*47
1535785616.6,30940,18.81,74562.8,14.27,-12.07,-12.65,0,*47
1535785617.83,30941,18.81,74562.5,14.27,-11.63,-12.21,0,*47
1535785619.07,30942,18.81,74560.8,14.27,-12.11,-12.93,0,*4B
1535785620.33,30943,18.81,74560.3,14.27,-11.93,-12.61,0,*4E
1535785621.59,30944,18.81,74562.3,14.31,-11.85,-12.35,0,*48
1535785622.84,30945,18.81,74560.0,14.33,-11.73,-12.39,0,*4E
1535785624.1,30946,18.81,74560.0,14.33,-11.59,-12.25,0,*48
1535785625.36,30947,18.81,74560.5,14.33,-12.25,-12.83,0,*4D
1535785626.59,30948,18.81,74562.0,14.33,-12.39,-13.11,0,*45
1535785627.85,30949,18.81,74562.0,14.31,-13.29,-14.01,0,*40
1535785629.1,30950,18.81,74558.3,14.33,-13.65,-14.51,0,*47
1535785630.33,30951,18.81,74558.3,14.31,-13.73,-14.43,0,*40
1535785631.56,30952,18.81,74556.0,14.27,-13.11,-13.97,0,*4E
1535785632.78,30953,18.81,74562.0,14.27,-13.07,-13.79,0,*48
1535785634.02,30954,18.81,74562.5,14.27,-13.83,-14.61,0,*4D
1535785635.26,30955,18.81,74558.3,14.25,-13.73,-14.65,0,*45
1535785636.48,30956,18.81,74556.0,14.23,-13.01,-13.69,0,*4E
1535785637.77,30957,18.81,74562.0,14.25,-13.97,-14.83,0,*45
1535785639.01,30958,18.81,74558.5,14.23,-14.11,-14.97,0,*40
1535785640.27,30959,18.81,74558.5,14.21,-13.55,-14.47,0,*49
1535785641.52,30960,18.81,74560.8,14.21,-13.33,-13.93,0,*4D
1535785642.74,30961,18.81,74556.8,14.19,-12.97,-13.69,0,*4D
1535785644.01,30962,18.81,74560.8,14.19,-11.51,-12.07,0,*4E
1535785645.27,30963,18.81,74558.3,14.19,-11.63,-12.29,0,*42
1535785646.5,30964,18.81,74564.0,14.21,-12.47,-13.15,0,*45
1535785647.78,30965,18.81,74562.0,14.21,-12.61,-13.33,0,*44
1535785649.03,30966,18.81,74564.3,14.23,-11.85,-12.53,0,*4B
1535785650.29,30967,18.81,74560.8,14.23,-12.15,-12.83,0,*4D
1535785651.5,30968,18.81,74558.5,14.23,-12.25,-12.97,0,*44
1535785652.75,30969,18.81,74558.3,14.23,-12.57,-13.29,0,*44
1535785653.98,30970,18.81,74558.8,14.23,-12.29,-13.01,0,*4F
1535785655.2,30971,18.81,74556.3,14.23,-13.15,-13.83,0,*4A
1535785656.46,30972,18.81,74556.5,14.23,-11.93,-12.53,0,*49
1535785657.68,30973,18.81,74562.8,14.23,-12.39,-13.01,0,*4D
1535785658.89,30974,18.81,74562.8,14.23,-12.29,-13.11,0,*4A
1535785660.09,30975,18.81,74562.5,14.23,-12.47,-13.15,0,*47
1535785661.29,30976,18.81,74560.3,14.23,-12.43,-13.15,0,*40
1535785662.55,30977,18.81,74560.5,14.23,-11.85,-12.53,0,*4B
1535785663.77,30978,18.81,74562.8,14.23,-12.03,-12.65,0,*4C
1535785665.03,30979,18.81,74560.5,14.23,-12.11,-12.79,0,*43
1535785666.32,30980,18.81,74560.0,14.25,-11.29,-11.89,0,*47
1535785667.54,30981,18.81,74560.3,14.27,-11.15,-11.81,0,*43
1535785668.8,30982,18.81,74560.3,14.25,-11.77,-12.39,0,*46
1535785670.01,30983,18.81,74562.0,14.27,-12.39,-12.97,0,*48
1535785671.24,30984,18.81,74560.3,14.27,-11.77,-12.39,0,*42
1535785672.5,30985,18.81,74560.8,14.27,-11.93,-12.61,0,*44
1535785673.76,30986,18.81,74558.0,14.27,-11.93,-12.61,0,*47
1535785675.02,30987,18.81,74562.3,14.27,-11.93,-12.61,0,*46
1535785676.26,30988,18.81,74560.5,14.27,-11.77,-12.39,0,*4E
1535785677.51,30989,18.81,74560.5,14.27,-11.37,-12.07,0,*46
1535785678.77,30990,18.81,74560.0,14.27,-11.97,-12.53,0,*45
1535785680.01,30991,18.81,74562.5,14.31,-12.21,-12.83,0,*40
1535785681.25,30992,18.81,74560.8,14.27,-11.67,-12.21,0,*4D
1535785682.47,30993,18.81,74562.5,14.31,-11.11,-11.77,0,*4A
1535785683.73,30994,18.81,74562.5,14.31,-11.89,-12.57,0,*4D
1535785685.0,30995,18.81,74560.0,14.31,-12.07,-12.71,0,*4D
1535785686.26,30996,18.81,74564.0,14.31,-11.93,-12.71,0,*40
1535785687.52,30997,18.81,74560.3,14.33,-11.73,-12.43,0,*4C
1535785688.78,30998,18.81,74562.5,14.31,-11.93,-12.61,0,*4F
1535785690.04,30999,18.81,74564.3,14.33,-11.59,-12.29,0,*46
1535785691.29,31000,18.81,74562.0,14.31,-11.51,-12.07,0,*48
1535785692.5,31001,18.81,74560.0,14.31,-12.47,-13.07,0,*4C
1535785693.74,31002,18.81,74560.8,14.31,-11.93,-12.47,0,*40
1535785695.02,31003,18.81,74562.3,14.33,-11.33,-11.89,0,*48
1535785696.25,31004,18.81,74560.0,14.31,-11.73,-12.29,0,*40
1535785697.54,31005,18.81,74564.3,14.33,-12.11,-12.71,0,*49
1535785698.79,31006,18.81,74560.3,14.33,-11.67,-12.25,0,*49